| time (UTC) | temp C | wind direction | speed KPH | gust KPH | rain 1hr cm | rain 24hr cm | rain mn cm | humidity % | barometer mb |
| 20260510202312 | 28 | 28 | 0.0 | 0.0 | 0.00 | 0.05 | 0.05 | 72 | 1016.0 |
| 20260510201809 | 28 | 261 | 3.2 | 4.8 | 0.00 | 0.05 | 0.05 | 73 | 1015.8 |
| 20260510201305 | 28 | 123 | 4.8 | 4.8 | 0.00 | 0.05 | 0.05 | 74 | 1015.9 |
| 20260510200802 | 28 | 288 | 3.2 | 3.2 | 0.00 | 0.05 | 0.05 | 74 | 1015.6 |
| 20260510200300 | 27 | 149 | 3.2 | 4.8 | 0.00 | 0.05 | 0.05 | 75 | 1015.7 |
| 20260510195756 | 27 | 81 | 3.2 | 4.8 | 0.00 | 0.05 | 0.05 | 76 | 1015.8 |
| 20260510195253 | 27 | 141 | 3.2 | 6.4 | 0.00 | 0.05 | 0.05 | 76 | 1016.0 |
| 20260510194752 | 27 | 148 | 3.2 | 3.2 | 0.00 | 0.05 | 0.05 | 75 | 1016.0 |
| 20260510194249 | 27 | 268 | 3.2 | 4.8 | 0.00 | 0.05 | 0.05 | 76 | 1016.0 |
| 20260510193745 | 27 | 167 | 4.8 | 9.7 | 0.00 | 0.05 | 0.05 | 74 | 1015.9 |
| 20260510193240 | 28 | 260 | 3.2 | 3.2 | 0.00 | 0.05 | 0.05 | 76 | 1015.9 |
| 20260510192736 | 27 | 195 | 3.2 | 4.8 | 0.00 | 0.05 | 0.05 | 77 | 1015.8 |
| 20260510192231 | 28 | 232 | 3.2 | 4.8 | 0.00 | 0.05 | 0.05 | 77 | 1015.9 |
| 20260510191728 | 27 | 120 | 0.0 | 0.0 | 0.00 | 0.05 | 0.05 | 77 | 1015.8 |
| 20260510191224 | 27 | 267 | 1.6 | 3.2 | 0.00 | 0.05 | 0.05 | 78 | 1015.9 |
| 20260510190721 | 26 | 236 | 6.4 | 6.4 | 0.00 | 0.05 | 0.05 | 77 | 1016.2 |
| 20260510190218 | 27 | 227 | 3.2 | 6.4 | 0.00 | 0.05 | 0.05 | 75 | 1016.2 |
| 20260510185715 | 28 | 223 | 6.4 | 9.7 | 0.00 | 0.05 | 0.05 | 76 | 1016.1 |
| 20260510185214 | 27 | 262 | 6.4 | 11.3 | 0.00 | 0.05 | 0.05 | 76 | 1016.1 |
| 20260510184710 | 27 | 187 | 6.4 | 9.7 | 0.00 | 0.05 | 0.05 | 76 | 1016.3 |
| 20260510184207 | 27 | 273 | 3.2 | 4.8 | 0.00 | 0.05 | 0.05 | 77 | 1016.3 |
| 20260510183701 | 27 | 307 | 8.0 | 11.3 | 0.00 | 0.05 | 0.05 | 76 | 1016.4 |
| 20260510183156 | 26 | 253 | 3.2 | 4.8 | 0.00 | 0.05 | 0.05 | 78 | 1016.7 |
| 20260510182653 | 27 | 241 | 4.8 | 4.8 | 0.00 | 0.05 | 0.05 | 76 | 1016.7 |
| 20260510182149 | 27 | 163 | 6.4 | 9.7 | 0.00 | 0.05 | 0.05 | 76 | 1016.6 |
| 20260510181647 | 28 | 187 | 4.8 | 9.7 | 0.00 | 0.05 | 0.05 | 76 | 1016.9 |
| 20260510181143 | 28 | 241 | 8.0 | 11.3 | 0.00 | 0.05 | 0.05 | 72 | 1016.7 |
| 20260510180638 | 27 | 246 | 4.8 | 6.4 | 0.00 | 0.05 | 0.05 | 70 | 1016.9 |
| 20260510180136 | 27 | 74 | 0.0 | 0.0 | 0.00 | 0.05 | 0.05 | 71 | 1016.9 |
| 20260510175632 | 27 | 10 | 1.6 | 1.6 | 0.00 | 0.05 | 0.05 | 71 | 1016.9 |
| 20260510175128 | 27 | 344 | 1.6 | 1.6 | 0.00 | 0.05 | 0.05 | 70 | 1017.0 |
| 20260510174626 | 28 | 187 | 3.2 | 3.2 | 0.00 | 0.05 | 0.05 | 68 | 1017.0 |
| 20260510174123 | 28 | 59 | 0.0 | 0.0 | 0.00 | 0.05 | 0.05 | 70 | 1016.9 |
| 20260510173619 | 27 | 63 | 0.0 | 0.0 | 0.00 | 0.05 | 0.05 | 71 | 1016.9 |
| 20260510173115 | 28 | 310 | 0.0 | 0.0 | 0.00 | 0.05 | 0.05 | 71 | 1017.1 |
| 20260510172611 | 28 | 69 | 0.0 | 0.0 | 0.00 | 0.05 | 0.05 | 70 | 1017.2 |
| 20260510172107 | 28 | 27 | 1.6 | 3.2 | 0.00 | 0.05 | 0.05 | 69 | 1017.2 |
| 20260510171604 | 27 | 55 | 0.0 | 0.0 | 0.00 | 0.05 | 0.05 | 71 | 1017.0 |
| 20260510171102 | 27 | 81 | 1.6 | 4.8 | 0.00 | 0.05 | 0.05 | 71 | 1017.1 |
| 20260510170558 | 27 | 29 | 1.6 | 1.6 | 0.13 | 0.05 | 0.05 | 71 | 1017.2 |
| 20260510170054 | 28 | 124 | 1.6 | 3.2 | 0.13 | 0.05 | 0.05 | 70 | 1017.2 |
| 20260510165550 | 28 | 27 | 1.6 | 3.2 | 0.00 | 0.03 | 0.03 | 68 | 1017.1 |
| 20260510165046 | 28 | 19 | 4.8 | 4.8 | 0.00 | 0.03 | 0.03 | 71 | 1017.2 |
| 20260510164544 | 28 | 31 | 3.2 | 3.2 | 0.00 | 0.03 | 0.03 | 70 | 1017.5 |
| 20260510164040 | 27 | 120 | 0.0 | 1.6 | 0.00 | 0.03 | 0.03 | 72 | 1017.3 |
| 20260510163535 | 27 | 69 | 1.6 | 3.2 | 0.00 | 0.03 | 0.03 | 73 | 1017.3 |
| 20260510163032 | 27 | 45 | 0.0 | 1.6 | 0.00 | 0.03 | 0.03 | 74 | 1017.2 |
| 20260510162527 | 27 | 49 | 0.0 | 0.0 | 0.00 | 0.03 | 0.03 | 74 | 1017.3 |
| 20260510162024 | 27 | 32 | 3.2 | 4.8 | 0.00 | 0.03 | 0.03 | 75 | 1017.3 |
| 20260510161520 | 26 | 34 | 3.2 | 3.2 | 0.00 | 0.03 | 0.03 | 73 | 1017.1 |
| 20260510161017 | 27 | 29 | 8.0 | 9.7 | 0.00 | 0.03 | 0.03 | 75 | 1017.1 |
| 20260510160514 | 27 | 37 | 3.2 | 3.2 | 0.00 | 0.03 | 0.03 | 74 | 1017.3 |
| 20260510160014 | 27 | 43 | 1.6 | 1.6 | 0.00 | 0.03 | 0.03 | 73 | 1017.2 |
| 20260510155510 | 27 | 102 | 0.0 | 0.0 | 0.00 | 0.03 | 0.03 | 78 | 1017.1 |
| 20260510155007 | 27 | 123 | 1.6 | 4.8 | 0.00 | 0.03 | 0.03 | 76 | 1017.1 |
| 20260510154503 | 26 | 124 | 0.0 | 0.0 | 0.00 | 0.03 | 0.03 | 80 | 1017.2 |
| 20260510154002 | 26 | 141 | 0.0 | 0.0 | 0.00 | 0.03 | 0.03 | 77 | 1017.3 |
| 20260510153458 | 26 | 63 | 3.2 | 3.2 | 0.00 | 0.03 | 0.03 | 82 | 1017.2 |
| 20260510152955 | 25 | 58 | 1.6 | 3.2 | 0.00 | 0.03 | 0.03 | 83 | 1017.1 |
| 20260510152452 | 25 | 59 | 1.6 | 4.8 | 0.00 | 0.03 | 0.03 | 86 | 1017.0 |
| 20260510151948 | 25 | 102 | 1.6 | 3.2 | 0.00 | 0.03 | 0.03 | 88 | 1017.2 |
| 20260510151445 | 24 | 25 | 3.2 | 3.2 | 0.00 | 0.03 | 0.03 | 88 | 1017.1 |
| 20260510150942 | 24 | 39 | 3.2 | 4.8 | 0.00 | 0.03 | 0.03 | 89 | 1017.2 |
| 20260510150438 | 25 | 73 | 4.8 | 4.8 | 0.00 | 0.03 | 0.03 | 91 | 1017.3 |
| 20260510145934 | 24 | 50 | 3.2 | 6.4 | 0.00 | 0.03 | 0.03 | 93 | 1017.2 |
| 20260510145430 | 23 | 110 | 1.6 | 1.6 | 0.00 | 0.03 | 0.03 | 96 | 1017.4 |
| 20260510144927 | 23 | 21 | 4.8 | 4.8 | 0.00 | 0.03 | 0.03 | 95 | 1017.3 |
| 20260510144419 | 23 | 133 | 1.6 | 1.6 | 0.00 | 0.03 | 0.03 | 97 | 1017.4 |
| 20260510143918 | 23 | 52 | 3.2 | 3.2 | 0.00 | 0.03 | 0.03 | 97 | 1017.6 |
| 20260510143415 | 22 | 39 | 1.6 | 3.2 | 0.00 | 0.03 | 0.03 | 98 | 1017.3 |
| 20260510142912 | 22 | 38 | 1.6 | 3.2 | 0.00 | 0.03 | 0.03 | 97 | 1017.5 |
| 20260510142403 | 22 | 49 | 1.6 | 3.2 | 0.00 | 0.03 | 0.03 | 99 | 1017.3 |
| 20260510141859 | 22 | 56 | 0.0 | 1.6 | 0.00 | 0.03 | 0.03 | 98 | 1017.4 |
| 20260510141357 | 22 | 31 | 1.6 | 1.6 | 0.00 | 0.03 | 0.03 | 99 | 1017.3 |
| 20260510140853 | 21 | 34 | 1.6 | 3.2 | 0.00 | 0.03 | 0.03 | 99 | 1017.2 |
| 20260510140350 | 21 | 25 | 3.2 | 4.8 | 0.00 | 0.03 | 0.03 | 99 | 1017.2 |
| 20260510135848 | 22 | 53 | 1.6 | 1.6 | 0.00 | 0.03 | 0.03 | 99 | 1017.3 |
| 20260510135345 | 21 | 71 | 0.0 | 0.0 | 0.00 | 0.03 | 0.03 | 99 | 1017.1 |
| 20260510134842 | 21 | 77 | 1.6 | 3.2 | 0.00 | 0.03 | 0.03 | 99 | 1017.1 |
| 20260510134339 | 21 | 36 | 3.2 | 3.2 | 0.00 | 0.03 | 0.03 | 99 | 1017.2 |
| 20260510133835 | 20 | 48 | 0.0 | 0.0 | 0.00 | 0.03 | 0.03 | 99 | 1017.3 |
| 20260510133331 | 20 | 63 | 1.6 | 3.2 | 0.00 | 0.03 | 0.03 | 99 | 1017.3 |
| 20260510132827 | 20 | 46 | 3.2 | 3.2 | 0.00 | 0.03 | 0.03 | 99 | 1017.1 |
| 20260510132326 | 20 | 27 | 3.2 | 3.2 | 0.00 | 0.03 | 0.03 | 99 | 1017.1 |
| 20260510131822 | 20 | 103 | 0.0 | 0.0 | 0.00 | 0.03 | 0.03 | 99 | 1017.3 |
| 20260510131320 | 20 | 55 | 1.6 | 3.2 | 0.00 | 0.03 | 0.03 | 99 | 1017.2 |
| 20260510130816 | 20 | 59 | 0.0 | 0.0 | 0.00 | 0.03 | 0.03 | 99 | 1017.1 |
| 20260510130313 | 20 | 37 | 1.6 | 1.6 | 0.00 | 0.03 | 0.03 | 99 | 1016.9 |
| 20260510125809 | 20 | 44 | 3.2 | 3.2 | 0.00 | 0.03 | 0.03 | 99 | 1016.8 |
| 20260510125307 | 20 | 33 | 3.2 | 3.2 | 0.00 | 0.03 | 0.03 | 99 | 1016.9 |
| 20260510124803 | 19 | 54 | 1.6 | 1.6 | 0.00 | 0.03 | 0.03 | 99 | 1016.6 |
| 20260510124300 | 19 | 29 | 1.6 | 3.2 | 0.00 | 0.03 | 0.03 | 99 | 1016.7 |
| 20260510123755 | 19 | 45 | 4.8 | 4.8 | 0.00 | 0.03 | 0.03 | 99 | 1016.5 |
| 20260510123251 | 19 | 28 | 3.2 | 4.8 | 0.00 | 0.03 | 0.03 | 99 | 1016.6 |
| 20260510122747 | 19 | 40 | 3.2 | 3.2 | 0.00 | 0.03 | 0.03 | 99 | 1016.5 |
| 20260510122244 | 18 | 22 | 1.6 | 3.2 | 0.00 | 0.03 | 0.03 | 99 | 1016.2 |
| 20260510121740 | 18 | 66 | 1.6 | 1.6 | 0.00 | 0.03 | 0.03 | 99 | 1016.4 |
| 20260510121238 | 18 | 41 | 3.2 | 3.2 | 0.00 | 0.03 | 0.03 | 99 | 1016.0 |
| 20260510120735 | 18 | 43 | 1.6 | 1.6 | 0.00 | 0.03 | 0.03 | 99 | 1016.2 |
| 20260510120232 | 18 | 57 | 0.0 | 0.0 | 0.00 | 0.03 | 0.03 | 99 | 1015.9 |
| 20260510115727 | 18 | 57 | 1.6 | 1.6 | 0.00 | 0.03 | 0.03 | 99 | 1015.8 |
| 20260510115226 | 18 | 80 | 1.6 | 3.2 | 0.00 | 0.03 | 0.03 | 99 | 1015.8 |
| 20260510114715 | 18 | 55 | 1.6 | 1.6 | 0.00 | 0.03 | 0.03 | 99 | 1015.8 |
| 20260510114212 | 18 | 44 | 1.6 | 1.6 | 0.00 | 0.03 | 0.03 | 99 | 1015.8 |
| 20260510113707 | 18 | 37 | 0.0 | 0.0 | 0.00 | 0.03 | 0.03 | 99 | 1015.6 |
| 20260510113205 | 18 | 42 | 1.6 | 3.2 | 0.00 | 0.03 | 0.03 | 99 | 1015.6 |
| 20260510112701 | 18 | 48 | 0.0 | 1.6 | 0.00 | 0.03 | 0.03 | 99 | 1015.5 |
| 20260510112158 | 18 | 47 | 0.0 | 0.0 | 0.00 | 0.03 | 0.03 | 99 | 1015.4 |
| 20260510111653 | 18 | 38 | 0.0 | 0.0 | 0.00 | 0.03 | 0.03 | 99 | 1015.4 |
| 20260510111150 | 18 | 38 | 0.0 | 0.0 | 0.00 | 0.03 | 0.03 | 99 | 1015.3 |
| 20260510110645 | 18 | 41 | 0.0 | 0.0 | 0.00 | 0.03 | 0.03 | 99 | 1015.3 |
| 20260510110144 | 18 | 37 | 1.6 | 3.2 | 0.00 | 0.03 | 0.03 | 99 | 1015.1 |
| 20260510105639 | 18 | 26 | 3.2 | 3.2 | 0.00 | 0.03 | 0.03 | 99 | 1015.2 |
| 20260510105138 | 18 | 61 | 1.6 | 1.6 | 0.00 | 0.03 | 0.03 | 99 | 1015.3 |
| 20260510104636 | 18 | 47 | 0.0 | 0.0 | 0.00 | 0.03 | 0.03 | 99 | 1015.1 |
| 20260510104132 | 18 | 46 | 0.0 | 1.6 | 0.00 | 0.03 | 0.03 | 99 | 1014.9 |
| 20260510103629 | 18 | 60 | 0.0 | 0.0 | 0.00 | 0.03 | 0.03 | 99 | 1014.9 |
| 20260510103125 | 18 | 55 | 0.0 | 0.0 | 0.00 | 0.03 | 0.03 | 99 | 1014.8 |
| 20260510102620 | 18 | 56 | 0.0 | 0.0 | 0.00 | 0.03 | 0.03 | 99 | 1014.8 |
| 20260510102117 | 18 | 56 | 0.0 | 0.0 | 0.00 | 0.03 | 0.03 | 99 | 1014.8 |
| 20260510101615 | 18 | 48 | 0.0 | 1.6 | 0.00 | 0.03 | 0.03 | 99 | 1014.7 |
| 20260510101113 | 18 | 47 | 0.0 | 0.0 | 0.00 | 0.03 | 0.03 | 99 | 1014.5 |
| 20260510100608 | 18 | 71 | 0.0 | 0.0 | 0.00 | 0.03 | 0.03 | 99 | 1014.7 |
| 20260510100106 | 18 | 59 | 0.0 | 0.0 | 0.00 | 0.03 | 0.03 | 99 | 1014.6 |
| 20260510095602 | 18 | 59 | 0.0 | 0.0 | 0.00 | 0.03 | 0.03 | 99 | 1014.5 |
| 20260510095101 | 18 | 65 | 0.0 | 0.0 | 0.00 | 0.03 | 0.03 | 99 | 1014.5 |
| 20260510094600 | 18 | 77 | 0.0 | 0.0 | 0.00 | 0.03 | 0.03 | 99 | 1014.3 |
| 20260510094056 | 18 | 71 | 0.0 | 0.0 | 0.00 | 0.03 | 0.03 | 99 | 1014.2 |
| 20260510093553 | 18 | 78 | 0.0 | 0.0 | 0.00 | 0.03 | 0.03 | 99 | 1014.3 |
| 20260510093050 | 18 | 98 | 0.0 | 1.6 | 0.00 | 0.03 | 0.03 | 99 | 1014.2 |
| 20260510092547 | 18 | 73 | 0.0 | 0.0 | 0.00 | 0.03 | 0.03 | 99 | 1014.2 |
| 20260510092046 | 18 | 58 | 0.0 | 0.0 | 0.00 | 0.03 | 0.03 | 99 | 1014.1 |
| 20260510091543 | 18 | 63 | 0.0 | 0.0 | 0.00 | 0.03 | 0.03 | 99 | 1014.0 |
| 20260510091039 | 18 | 47 | 0.0 | 1.6 | 0.00 | 0.03 | 0.03 | 99 | 1014.1 |
| 20260510090536 | 18 | 44 | 1.6 | 1.6 | 0.00 | 0.03 | 0.03 | 99 | 1014.1 |
| 20260510090032 | 18 | 57 | 0.0 | 0.0 | 0.00 | 0.03 | 0.03 | 99 | 1014.1 |
| 20260510085527 | 18 | 42 | 1.6 | 1.6 | 0.00 | 0.03 | 0.03 | 99 | 1013.9 |
| 20260510085023 | 18 | 45 | 1.6 | 1.6 | 0.00 | 0.03 | 0.03 | 99 | 1013.9 |
| 20260510084520 | 18 | 59 | 1.6 | 1.6 | 0.00 | 0.03 | 0.03 | 99 | 1013.7 |
| 20260510084017 | 18 | 53 | 1.6 | 1.6 | 0.00 | 0.03 | 0.03 | 99 | 1013.6 |
| 20260510083513 | 18 | 35 | 1.6 | 1.6 | 0.00 | 0.03 | 0.03 | 99 | 1013.6 |
| 20260510083009 | 18 | 49 | 0.0 | 0.0 | 0.00 | 0.03 | 0.03 | 99 | 1013.8 |
| 20260510082506 | 18 | 40 | 0.0 | 1.6 | 0.00 | 0.03 | 0.03 | 99 | 1013.8 |
| 20260510082001 | 18 | 48 | 0.0 | 0.0 | 0.00 | 0.03 | 0.03 | 99 | 1013.6 |
| 20260510081456 | 18 | 60 | 0.0 | 0.0 | 0.00 | 0.03 | 0.03 | 99 | 1013.3 |
| 20260510080952 | 19 | 44 | 0.0 | 0.0 | 0.00 | 0.03 | 0.03 | 99 | 1013.3 |
| 20260510080451 | 19 | 44 | 0.0 | 0.0 | 0.00 | 0.03 | 0.03 | 99 | 1013.3 |
| 20260510075948 | 19 | 49 | 0.0 | 0.0 | 0.00 | 0.03 | 0.03 | 98 | 1013.3 |
| 20260510075446 | 19 | 46 | 0.0 | 1.6 | 0.00 | 0.03 | 0.03 | 98 | 1013.2 |
| 20260510074942 | 19 | 48 | 1.6 | 1.6 | 0.00 | 0.03 | 0.03 | 99 | 1013.1 |
| 20260510074440 | 19 | 44 | 1.6 | 1.6 | 0.00 | 0.03 | 0.03 | 98 | 1013.1 |
| 20260510073936 | 19 | 38 | 1.6 | 1.6 | 0.00 | 0.03 | 0.03 | 98 | 1013.1 |
| 20260510073432 | 19 | 45 | 0.0 | 1.6 | 0.00 | 0.03 | 0.03 | 98 | 1013.1 |
| 20260510072928 | 19 | 46 | 0.0 | 1.6 | 0.00 | 0.03 | 0.03 | 98 | 1013.0 |
| 20260510072425 | 19 | 55 | 0.0 | 0.0 | 0.18 | 0.03 | 0.03 | 98 | 1013.2 |
| 20260510071920 | 19 | 57 | 0.0 | 0.0 | 0.18 | 0.03 | 0.03 | 98 | 1013.2 |
| 20260510071417 | 19 | 66 | 0.0 | 0.0 | 0.00 | 0.00 | 0.00 | 98 | 1013.1 |
| 20260510070916 | 19 | 57 | 0.0 | 0.0 | 0.00 | 0.00 | 0.00 | 98 | 1012.9 |
| 20260510070413 | 19 | 69 | 1.6 | 3.2 | 0.00 | 0.00 | 0.00 | 98 | 1012.9 |
| 20260510065908 | 19 | 119 | 1.6 | 3.2 | 0.00 | 0.00 | 0.00 | 98 | 1012.7 |
| 20260510065404 | 19 | 111 | 1.6 | 1.6 | 0.00 | 0.00 | 0.00 | 98 | 1013.0 |
| 20260510064901 | 19 | 79 | 0.0 | 1.6 | 0.00 | 0.00 | 0.00 | 98 | 1013.1 |
| 20260510064359 | 19 | 111 | 3.2 | 4.8 | 0.00 | 0.00 | 0.00 | 98 | 1013.0 |
| 20260510063855 | 19 | 121 | 0.0 | 0.0 | 0.00 | 0.00 | 0.00 | 98 | 1013.2 |
| 20260510063352 | 19 | 51 | 1.6 | 1.6 | 0.00 | 0.00 | 0.00 | 98 | 1013.3 |
| 20260510062848 | 19 | 54 | 0.0 | 0.0 | 0.00 | 0.00 | 0.00 | 98 | 1013.4 |
| 20260510062344 | 19 | 59 | 0.0 | 0.0 | 0.00 | 0.00 | 0.00 | 98 | 1013.2 |
| 20260510061839 | 19 | 51 | 0.0 | 0.0 | 0.00 | 0.00 | 0.00 | 98 | 1013.3 |
| 20260510061336 | 19 | 67 | 0.0 | 0.0 | 0.00 | 0.00 | 0.00 | 98 | 1013.2 |
| 20260510060832 | 19 | 55 | 0.0 | 0.0 | 0.00 | 0.00 | 0.00 | 98 | 1013.4 |
| 20260510060330 | 19 | 93 | 0.0 | 0.0 | 0.00 | 0.00 | 0.00 | 98 | 1013.5 |
| 20260510055827 | 19 | 49 | 0.0 | 0.0 | 0.00 | 0.00 | 0.00 | 98 | 1013.7 |
| 20260510055325 | 19 | 72 | 0.0 | 0.0 | 0.00 | 0.00 | 0.00 | 98 | 1013.8 |
| 20260510054825 | 19 | 59 | 0.0 | 0.0 | 0.00 | 0.00 | 0.00 | 98 | 1013.8 |
| 20260510054320 | 19 | 52 | 0.0 | 0.0 | 0.00 | 0.00 | 0.00 | 98 | 1013.9 |
| 20260510053815 | 19 | 79 | 0.0 | 0.0 | 0.00 | 0.00 | 0.00 | 98 | 1013.8 |
| 20260510053312 | 19 | 75 | 0.0 | 0.0 | 0.00 | 0.00 | 0.00 | 98 | 1014.0 |
| 20260510052808 | 19 | 49 | 0.0 | 0.0 | 0.00 | 0.00 | 0.00 | 98 | 1013.7 |
| 20260510052306 | 19 | 49 | 0.0 | 0.0 | 0.00 | 0.00 | 0.00 | 98 | 1013.9 |
| 20260510051800 | 19 | 60 | 0.0 | 0.0 | 0.00 | 0.00 | 0.00 | 98 | 1014.2 |
| 20260510051257 | 20 | 59 | 0.0 | 0.0 | 0.00 | 0.00 | 0.00 | 98 | 1014.0 |
| 20260510050754 | 20 | 56 | 0.0 | 0.0 | 0.00 | 0.00 | 0.00 | 98 | 1014.1 |
| 20260510050251 | 20 | 72 | 0.0 | 0.0 | 0.00 | 0.00 | 0.00 | 98 | 1014.1 |
| 20260510045747 | 20 | 53 | 0.0 | 0.0 | 0.00 | 0.08 | 0.08 | 98 | 1014.1 |
| 20260510045244 | 20 | 51 | 0.0 | 0.0 | 0.00 | 0.08 | 0.08 | 98 | 1014.1 |
| 20260510044740 | 20 | 112 | 0.0 | 0.0 | 0.00 | 0.08 | 0.08 | 98 | 1013.9 |
| 20260510044239 | 20 | 80 | 0.0 | 0.0 | 0.00 | 0.08 | 0.08 | 98 | 1013.8 |
| 20260510043733 | 20 | 47 | 0.0 | 1.6 | 0.00 | 0.08 | 0.08 | 98 | 1013.5 |
| 20260510043231 | 20 | 41 | 0.0 | 0.0 | 0.00 | 0.08 | 0.08 | 98 | 1013.8 |
| 20260510042728 | 20 | 2 | 3.2 | 4.8 | 0.00 | 0.08 | 0.08 | 98 | 1013.8 |
| 20260510042223 | 20 | 30 | 1.6 | 3.2 | 0.00 | 0.08 | 0.08 | 98 | 1014.0 |
| 20260510041720 | 20 | 344 | 3.2 | 3.2 | 0.00 | 0.08 | 0.08 | 98 | 1014.3 |
| 20260510041218 | 20 | 48 | 0.0 | 1.6 | 0.00 | 0.08 | 0.08 | 98 | 1014.4 |
| 20260510040714 | 20 | 59 | 0.0 | 0.0 | 0.00 | 0.08 | 0.08 | 97 | 1014.2 |
| 20260510040212 | 20 | 59 | 0.0 | 0.0 | 0.00 | 0.08 | 0.08 | 97 | 1014.3 |
| 20260510035707 | 20 | 70 | 0.0 | 0.0 | 0.00 | 0.08 | 0.08 | 98 | 1014.2 |
| 20260510035203 | 20 | 80 | 0.0 | 0.0 | 0.00 | 0.08 | 0.08 | 97 | 1014.5 |
| 20260510034659 | 20 | 55 | 0.0 | 0.0 | 0.00 | 0.08 | 0.08 | 97 | 1014.6 |
| 20260510034156 | 20 | 55 | 0.0 | 0.0 | 0.00 | 0.08 | 0.08 | 97 | 1014.6 |
| 20260510033652 | 20 | 55 | 0.0 | 0.0 | 0.00 | 0.08 | 0.08 | 97 | 1014.6 |
| 20260510033150 | 20 | 47 | 0.0 | 0.0 | 0.00 | 0.08 | 0.08 | 97 | 1014.6 |
| 20260510032646 | 20 | 50 | 0.0 | 0.0 | 0.00 | 0.08 | 0.08 | 97 | 1014.4 |
| 20260510032142 | 20 | 50 | 0.0 | 0.0 | 0.00 | 0.08 | 0.08 | 97 | 1014.4 |
| 20260510031637 | 20 | 50 | 0.0 | 0.0 | 0.00 | 0.08 | 0.08 | 97 | 1014.3 |
| 20260510031135 | 20 | 44 | 0.0 | 0.0 | 0.00 | 0.08 | 0.08 | 97 | 1014.2 |
| 20260510030629 | 20 | 34 | 0.0 | 0.0 | 0.00 | 0.08 | 0.08 | 97 | 1014.3 |
| 20260510030127 | 20 | 48 | 0.0 | 0.0 | 0.00 | 0.08 | 0.08 | 97 | 1014.3 |
| 20260510025623 | 20 | 55 | 0.0 | 0.0 | 0.00 | 0.08 | 0.08 | 97 | 1014.3 |
| 20260510025121 | 20 | 44 | 0.0 | 0.0 | 0.00 | 0.08 | 0.08 | 97 | 1014.3 |
| 20260510024618 | 20 | 54 | 0.0 | 0.0 | 0.00 | 0.08 | 0.08 | 97 | 1014.0 |
| 20260510024114 | 20 | 56 | 0.0 | 1.6 | 0.00 | 0.08 | 0.08 | 97 | 1013.8 |
| 20260510023610 | 20 | 56 | 0.0 | 0.0 | 0.00 | 0.08 | 0.08 | 97 | 1013.9 |
| 20260510023108 | 20 | 50 | 0.0 | 0.0 | 0.00 | 0.08 | 0.08 | 97 | 1013.8 |
| 20260510022607 | 20 | 51 | 0.0 | 0.0 | 0.00 | 0.08 | 0.08 | 97 | 1013.8 |
| 20260510022102 | 20 | 17 | 1.6 | 1.6 | 0.00 | 0.08 | 0.08 | 97 | 1013.7 |
| 20260510021558 | 20 | 43 | 0.0 | 1.6 | 0.00 | 0.08 | 0.08 | 97 | 1013.8 |
| 20260510021055 | 20 | 30 | 1.6 | 1.6 | 0.00 | 0.08 | 0.08 | 97 | 1013.8 |
| 20260510020549 | 20 | 34 | 3.2 | 3.2 | 0.00 | 0.08 | 0.08 | 97 | 1013.7 |
| 20260510020045 | 20 | 54 | 0.0 | 1.6 | 0.00 | 0.08 | 0.08 | 97 | 1013.5 |
| 20260510015536 | 20 | 46 | 0.0 | 0.0 | 0.00 | 0.08 | 0.08 | 97 | 1013.6 |
| 20260510015032 | 20 | 49 | 0.0 | 0.0 | 0.00 | 0.08 | 0.08 | 97 | 1013.4 |
| 20260510014529 | 20 | 53 | 1.6 | 1.6 | 0.00 | 0.08 | 0.08 | 96 | 1013.4 |
| 20260510014026 | 20 | 74 | 0.0 | 0.0 | 0.00 | 0.08 | 0.08 | 96 | 1013.6 |
| 20260510013520 | 20 | 59 | 0.0 | 0.0 | 0.00 | 0.08 | 0.08 | 96 | 1013.5 |
| 20260510013016 | 20 | 81 | 0.0 | 0.0 | 0.00 | 0.08 | 0.08 | 96 | 1013.8 |
| 20260510012511 | 20 | 128 | 1.6 | 1.6 | 0.00 | 0.08 | 0.08 | 96 | 1014.0 |
| 20260510012007 | 20 | 93 | 0.0 | 0.0 | 0.00 | 0.08 | 0.08 | 96 | 1014.1 |
| 20260510011507 | 20 | 108 | 0.0 | 1.6 | 0.00 | 0.08 | 0.08 | 96 | 1014.2 |
| 20260510011003 | 20 | 94 | 0.0 | 1.6 | 0.00 | 0.08 | 0.08 | 96 | 1014.1 |
| 20260510010500 | 20 | 89 | 0.0 | 0.0 | 0.00 | 0.08 | 0.08 | 96 | 1014.3 |
| 20260510005957 | 20 | 77 | 0.0 | 0.0 | 0.00 | 0.08 | 0.08 | 96 | 1014.1 |
| 20260510005452 | 20 | 67 | 0.0 | 0.0 | 0.00 | 0.08 | 0.08 | 96 | 1014.1 |
| 20260510004950 | 20 | 38 | 0.0 | 1.6 | 0.00 | 0.08 | 0.08 | 96 | 1014.4 |
| 20260510004447 | 20 | 52 | 1.6 | 1.6 | 0.00 | 0.08 | 0.08 | 96 | 1014.4 |
| 20260510003945 | 20 | 29 | 1.6 | 3.2 | 0.00 | 0.08 | 0.08 | 96 | 1014.0 |
| 20260510003443 | 20 | 87 | 0.0 | 1.6 | 0.00 | 0.08 | 0.08 | 96 | 1014.1 |
| 20260510002942 | 20 | 163 | 1.6 | 3.2 | 0.00 | 0.08 | 0.08 | 95 | 1013.7 |
| 20260510002439 | 20 | 338 | 1.6 | 1.6 | 0.00 | 0.08 | 0.08 | 96 | 1013.4 |
| 20260510001935 | 20 | 87 | 1.6 | 1.6 | 0.00 | 0.08 | 0.08 | 95 | 1012.9 |
| 20260510001433 | 20 | 57 | 0.0 | 0.0 | 0.00 | 0.08 | 0.08 | 95 | 1012.6 |
| 20260510000930 | 20 | 62 | 3.2 | 3.2 | 0.00 | 0.08 | 0.08 | 95 | 1013.0 |
| 20260510000426 | 20 | 7 | 4.8 | 4.8 | 0.00 | 0.08 | 0.08 | 95 | 1012.9 |
| 20260509235923 | 20 | 55 | 3.2 | 3.2 | 0.00 | 0.08 | 0.08 | 95 | 1012.2 |
| 20260509235420 | 20 | 102 | 3.2 | 3.2 | 0.00 | 0.08 | 0.08 | 95 | 1012.1 |
| 20260509234916 | 20 | 128 | 4.8 | 6.4 | 0.00 | 0.08 | 0.08 | 94 | 1012.0 |
| 20260509234413 | 20 | 124 | 8.0 | 11.3 | 0.00 | 0.08 | 0.08 | 94 | 1012.0 |
| 20260509233911 | 20 | 135 | 4.8 | 9.7 | 0.00 | 0.08 | 0.08 | 94 | 1012.3 |
| 20260509233408 | 20 | 134 | 1.6 | 3.2 | 0.00 | 0.08 | 0.08 | 94 | 1012.4 |
| 20260509232904 | 21 | 125 | 1.6 | 3.2 | 0.00 | 0.08 | 0.08 | 93 | 1012.6 |
| 20260509232402 | 21 | 144 | 0.0 | 1.6 | 0.00 | 0.08 | 0.08 | 93 | 1012.8 |
| 20260509231857 | 21 | 50 | 0.0 | 1.6 | 0.00 | 0.08 | 0.08 | 93 | 1012.7 |
| 20260509231355 | 21 | 59 | 1.6 | 1.6 | 0.00 | 0.08 | 0.08 | 92 | 1013.0 |
| 20260509230853 | 21 | 92 | 1.6 | 1.6 | 0.00 | 0.08 | 0.08 | 92 | 1012.8 |
| 20260509230349 | 21 | 113 | 1.6 | 3.2 | 0.00 | 0.08 | 0.08 | 92 | 1012.9 |
| 20260509225844 | 21 | 110 | 3.2 | 3.2 | 0.00 | 0.08 | 0.08 | 92 | 1013.0 |
| 20260509225342 | 21 | 71 | 0.0 | 0.0 | 0.00 | 0.08 | 0.08 | 92 | 1013.0 |
| 20260509224837 | 21 | 78 | 0.0 | 0.0 | 0.13 | 0.08 | 0.08 | 92 | 1013.2 |
| 20260509224333 | 21 | 66 | 0.0 | 1.6 | 0.13 | 0.08 | 0.08 | 92 | 1013.2 |
| 20260509223831 | 21 | 58 | 0.0 | 0.0 | 0.00 | 0.05 | 0.05 | 93 | 1013.1 |
| 20260509223327 | 21 | 51 | 0.0 | 0.0 | 0.00 | 0.05 | 0.05 | 93 | 1013.2 |
| 20260509222825 | 21 | 53 | 1.6 | 1.6 | 0.00 | 0.05 | 0.05 | 92 | 1012.9 |
| 20260509222320 | 21 | 89 | 1.6 | 1.6 | 0.00 | 0.05 | 0.05 | 92 | 1012.9 |
| 20260509221816 | 21 | 89 | 0.0 | 1.6 | 0.00 | 0.05 | 0.05 | 92 | 1012.9 |
| 20260509221314 | 21 | 95 | 1.6 | 1.6 | 0.00 | 0.05 | 0.05 | 91 | 1012.8 |
| 20260509220814 | 21 | 66 | 0.0 | 0.0 | 0.00 | 0.05 | 0.05 | 91 | 1012.8 |
| 20260509220310 | 21 | 68 | 0.0 | 0.0 | 0.00 | 0.05 | 0.05 | 91 | 1012.8 |
| 20260509215806 | 21 | 50 | 0.0 | 1.6 | 0.00 | 0.05 | 0.05 | 91 | 1012.7 |
| 20260509215305 | 22 | 51 | 3.2 | 3.2 | 0.00 | 0.05 | 0.05 | 91 | 1012.9 |
| 20260509214759 | 21 | 46 | 0.0 | 0.0 | 0.00 | 0.05 | 0.05 | 91 | 1013.0 |
| 20260509214257 | 21 | 50 | 0.0 | 1.6 | 0.00 | 0.05 | 0.05 | 91 | 1012.7 |
| 20260509213753 | 21 | 99 | 0.0 | 0.0 | 0.00 | 0.05 | 0.05 | 91 | 1012.5 |
| 20260509213249 | 21 | 110 | 0.0 | 0.0 | 0.00 | 0.05 | 0.05 | 90 | 1012.3 |
| 20260509212746 | 22 | 106 | 0.0 | 1.6 | 0.00 | 0.05 | 0.05 | 90 | 1012.5 |
| 20260509212244 | 22 | 92 | 0.0 | 1.6 | 0.00 | 0.05 | 0.05 | 90 | 1012.4 |
| 20260509211739 | 22 | 99 | 0.0 | 0.0 | 0.00 | 0.05 | 0.05 | 90 | 1012.6 |
| 20260509211236 | 22 | 81 | 0.0 | 0.0 | 0.00 | 0.05 | 0.05 | 90 | 1013.0 |
| 20260509210732 | 22 | 59 | 0.0 | 0.0 | 0.00 | 0.05 | 0.05 | 90 | 1012.7 |
| 20260509210231 | 22 | 53 | 0.0 | 0.0 | 0.00 | 0.05 | 0.05 | 90 | 1012.8 |
| 20260509205730 | 22 | 79 | 0.0 | 1.6 | 0.00 | 0.05 | 0.05 | 90 | 1012.9 |
| 20260509205230 | 22 | 63 | 0.0 | 1.6 | 0.00 | 0.05 | 0.05 | 90 | 1013.1 |
| 20260509204726 | 22 | 53 | 1.6 | 1.6 | 0.00 | 0.05 | 0.05 | 89 | 1012.9 |
| 20260509204223 | 22 | 25 | 1.6 | 1.6 | 0.00 | 0.05 | 0.05 | 89 | 1012.8 |
| 20260509203718 | 22 | 103 | 0.0 | 1.6 | 0.00 | 0.05 | 0.05 | 89 | 1012.8 |
| 20260509203217 | 22 | 52 | 3.2 | 4.8 | 0.00 | 0.05 | 0.05 | 89 | 1013.0 |
| 20260509202712 | 22 | 66 | 3.2 | 3.2 | 0.00 | 0.05 | 0.05 | 88 | 1012.5 |